| time (UTC) | temp F | wind direction | speed MPH | gust MPH | rain 1hr in | rain 24hr in | rain mn in | humidity % | barometer mb |
| 20260510191204 | 51 | 249 | 1.0 | 2.0 | 0.00 | 0.00 | 0.00 | 91 | 1019.2 |
| 20260510190003 | 50 | 241 | 1.0 | 2.0 | 0.00 | 0.00 | 0.00 | 92 | 1019.3 |
| 20260510184804 | 50 | 241 | 1.0 | 1.0 | 0.00 | 0.00 | 0.00 | 91 | 1019.1 |
| 20260510183603 | 51 | 180 | 0.0 | 0.0 | 0.00 | 0.00 | 0.00 | 90 | 1019.2 |
| 20260510182403 | 51 | 246 | 2.0 | 2.0 | 0.00 | 0.00 | 0.00 | 91 | 1019.3 |
| 20260510181202 | 51 | 260 | 2.0 | 3.0 | 0.00 | 0.00 | 0.00 | 91 | 1019.2 |
| 20260510180004 | 50 | 230 | 2.0 | 2.0 | 0.00 | 0.00 | 0.00 | 92 | 1019.1 |
| 20260510174803 | 51 | 256 | 3.0 | 5.0 | 0.00 | 0.00 | 0.00 | 91 | 1019.0 |
| 20260510173604 | 51 | 280 | 0.0 | 1.0 | 0.00 | 0.00 | 0.00 | 91 | 1019.0 |
| 20260510172403 | 52 | 219 | 1.0 | 2.0 | 0.00 | 0.00 | 0.00 | 88 | 1019.3 |
| 20260510171204 | 52 | 270 | 5.0 | 6.0 | 0.00 | 0.00 | 0.00 | 89 | 1019.0 |
| 20260510170002 | 51 | 272 | 0.0 | 1.0 | 0.00 | 0.00 | 0.00 | 91 | 1019.0 |
| 20260510164804 | 52 | 251 | 3.0 | 3.0 | 0.00 | 0.00 | 0.00 | 89 | 1019.3 |
| 20260510163604 | 51 | 245 | 1.0 | 1.0 | 0.00 | 0.00 | 0.00 | 91 | 1019.3 |
| 20260510162403 | 52 | 222 | 3.0 | 3.0 | 0.00 | 0.00 | 0.00 | 91 | 1019.4 |
| 20260510161204 | 52 | 218 | 1.0 | 2.0 | 0.00 | 0.00 | 0.00 | 91 | 1019.4 |
| 20260510160003 | 52 | 235 | 2.0 | 2.0 | 0.00 | 0.00 | 0.00 | 91 | 1019.6 |
| 20260510154804 | 52 | 207 | 2.0 | 3.0 | 0.00 | 0.00 | 0.00 | 91 | 1019.4 |
| 20260510153604 | 52 | 233 | 2.0 | 2.0 | 0.00 | 0.00 | 0.00 | 90 | 1019.2 |
| 20260510152404 | 53 | 273 | 0.0 | 2.0 | 0.00 | 0.00 | 0.00 | 89 | 1019.5 |
| 20260510151202 | 53 | 215 | 2.0 | 3.0 | 0.00 | 0.00 | 0.00 | 89 | 1019.3 |
| 20260510150003 | 53 | 286 | 2.0 | 3.0 | 0.00 | 0.00 | 0.00 | 90 | 1019.4 |
| 20260510144804 | 54 | 246 | 0.0 | 0.0 | 0.00 | 0.00 | 0.00 | 87 | 1019.5 |
| 20260510143603 | 54 | 174 | 0.0 | 0.0 | 0.00 | 0.00 | 0.00 | 87 | 1019.4 |
| 20260510142402 | 54 | 241 | 1.0 | 2.0 | 0.00 | 0.00 | 0.00 | 87 | 1019.3 |
| 20260510141204 | 54 | 215 | 1.0 | 2.0 | 0.00 | 0.00 | 0.00 | 87 | 1019.4 |
| 20260510140004 | 55 | 265 | 1.0 | 2.0 | 0.00 | 0.00 | 0.00 | 85 | 1019.3 |
| 20260510134803 | 55 | 146 | 1.0 | 2.0 | 0.00 | 0.00 | 0.00 | 86 | 1019.2 |
| 20260510133603 | 55 | 264 | 0.0 | 0.0 | 0.00 | 0.00 | 0.00 | 85 | 1019.4 |
| 20260510132404 | 56 | 265 | 1.0 | 2.0 | 0.00 | 0.00 | 0.00 | 84 | 1019.2 |
| 20260510130003 | 56 | 271 | 1.0 | 2.0 | 0.00 | 0.00 | 0.00 | 82 | 1019.2 |
| 20260510124803 | 57 | 285 | 1.0 | 2.0 | 0.00 | 0.00 | 0.00 | 81 | 1019.3 |
| 20260510123601 | 57 | 218 | 1.0 | 2.0 | 0.00 | 0.00 | 0.00 | 81 | 1019.0 |
| 20260510122403 | 58 | 291 | 3.0 | 5.0 | 0.00 | 0.00 | 0.00 | 81 | 1018.8 |
| 20260510121204 | 58 | 190 | 0.0 | 0.0 | 0.00 | 0.00 | 0.00 | 78 | 1018.8 |
| 20260510120003 | 59 | 282 | 0.0 | 0.0 | 0.00 | 0.00 | 0.00 | 76 | 1018.9 |
| 20260510114802 | 59 | 199 | 2.0 | 2.0 | 0.00 | 0.00 | 0.00 | 75 | 1018.6 |
| 20260510113604 | 60 | 202 | 2.0 | 2.0 | 0.00 | 0.00 | 0.00 | 75 | 1018.7 |
| 20260510112403 | 60 | 219 | 1.0 | 3.0 | 0.00 | 0.00 | 0.00 | 75 | 1018.5 |
| 20260510111203 | 61 | 214 | 2.0 | 3.0 | 0.00 | 0.00 | 0.00 | 74 | 1018.3 |
| 20260510110004 | 62 | 274 | 5.0 | 6.0 | 0.00 | 0.00 | 0.00 | 69 | 1018.5 |
| 20260510104803 | 63 | 207 | 2.0 | 5.0 | 0.00 | 0.00 | 0.00 | 68 | 1018.2 |
| 20260510103604 | 66 | 130 | 8.0 | 13.0 | 0.00 | 0.00 | 0.00 | 61 | 1017.7 |
| 20260510102403 | 66 | 146 | 10.0 | 15.0 | 0.00 | 0.00 | 0.00 | 62 | 1017.6 |
| 20260510101204 | 66 | 142 | 14.0 | 22.0 | 0.00 | 0.00 | 0.00 | 62 | 1017.5 |
| 20260510100003 | 66 | 122 | 17.0 | 23.0 | 0.00 | 0.00 | 0.00 | 62 | 1017.2 |
| 20260510094804 | 67 | 157 | 17.0 | 22.0 | 0.00 | 0.00 | 0.00 | 61 | 1017.2 |
| 20260510093603 | 67 | 154 | 10.0 | 17.0 | 0.00 | 0.00 | 0.00 | 60 | 1016.9 |
| 20260510092402 | 67 | 182 | 12.0 | 18.0 | 0.00 | 0.00 | 0.00 | 59 | 1017.0 |
| 20260510091204 | 68 | 153 | 14.0 | 29.0 | 0.00 | 0.00 | 0.00 | 59 | 1016.8 |
| 20260510084803 | 69 | 144 | 7.0 | 18.0 | 0.00 | 0.00 | 0.00 | 56 | 1016.7 |
| 20260510083604 | 69 | 167 | 3.0 | 7.0 | 0.00 | 0.00 | 0.00 | 54 | 1016.6 |
| 20260510082402 | 70 | 218 | 7.0 | 16.0 | 0.00 | 0.00 | 0.00 | 53 | 1016.5 |
| 20260510081204 | 70 | 259 | 5.0 | 10.0 | 0.00 | 0.00 | 0.00 | 52 | 1016.6 |
| 20260510080003 | 71 | 263 | 6.0 | 10.0 | 0.00 | 0.00 | 0.00 | 50 | 1016.5 |
| 20260510074804 | 71 | 118 | 6.0 | 10.0 | 0.00 | 0.00 | 0.00 | 49 | 1016.4 |
| 20260510073603 | 71 | 328 | 8.0 | 12.0 | 0.00 | 0.00 | 0.00 | 50 | 1016.4 |
| 20260510072402 | 71 | 322 | 5.0 | 6.0 | 0.00 | 0.00 | 0.00 | 49 | 1016.4 |
| 20260510071204 | 71 | 40 | 7.0 | 13.0 | 0.00 | 0.00 | 0.00 | 49 | 1016.3 |
| 20260510070003 | 71 | 68 | 12.0 | 16.0 | 0.00 | 0.00 | 0.00 | 48 | 1016.3 |
| 20260510064804 | 71 | 114 | 6.0 | 12.0 | 0.00 | 0.00 | 0.00 | 48 | 1016.2 |
| 20260510063602 | 71 | 94 | 10.0 | 17.0 | 0.00 | 0.00 | 0.00 | 48 | 1016.4 |
| 20260510062403 | 72 | 118 | 9.0 | 14.0 | 0.00 | 0.00 | 0.00 | 47 | 1016.3 |
| 20260510061203 | 72 | 134 | 6.0 | 13.0 | 0.00 | 0.00 | 0.00 | 45 | 1016.4 |
| 20260510060002 | 71 | 117 | 6.0 | 10.0 | 0.00 | 0.00 | 0.00 | 44 | 1016.5 |
| 20260510054804 | 72 | 92 | 8.0 | 13.0 | 0.00 | 0.00 | 0.00 | 43 | 1016.3 |
| 20260510053603 | 73 | 112 | 8.0 | 20.0 | 0.00 | 0.00 | 0.00 | 42 | 1016.7 |
| 20260510052403 | 72 | 104 | 7.0 | 12.0 | 0.00 | 0.00 | 0.00 | 42 | 1016.7 |
| 20260510051202 | 73 | 103 | 7.0 | 17.0 | 0.00 | 0.00 | 0.00 | 41 | 1016.7 |
| 20260510050004 | 72 | 308 | 3.0 | 7.0 | 0.00 | 0.00 | 0.00 | 41 | 1016.6 |
| 20260510044802 | 73 | 168 | 2.0 | 6.0 | 0.00 | 0.00 | 0.00 | 39 | 1016.7 |
| 20260510043603 | 73 | 353 | 7.0 | 9.0 | 0.00 | 0.00 | 0.00 | 39 | 1016.6 |
| 20260510042402 | 73 | 4 | 3.0 | 6.0 | 0.00 | 0.00 | 0.00 | 38 | 1017.0 |
| 20260510041204 | 73 | 42 | 10.0 | 17.0 | 0.00 | 0.00 | 0.00 | 39 | 1016.9 |
| 20260510040002 | 72 | 15 | 6.0 | 12.0 | 0.00 | 0.00 | 0.00 | 39 | 1017.2 |
| 20260510033602 | 73 | 32 | 9.0 | 15.0 | 0.00 | 0.00 | 0.00 | 38 | 1017.2 |
| 20260510032403 | 72 | 15 | 9.0 | 15.0 | 0.00 | 0.00 | 0.00 | 38 | 1017.3 |
| 20260510031204 | 73 | 208 | 2.0 | 3.0 | 0.00 | 0.00 | 0.00 | 37 | 1017.8 |
| 20260510030003 | 71 | 309 | 2.0 | 3.0 | 0.00 | 0.00 | 0.00 | 39 | 1018.0 |
| 20260510024804 | 70 | 307 | 3.0 | 8.0 | 0.00 | 0.00 | 0.00 | 36 | 1018.3 |
| 20260510023602 | 69 | 22 | 5.0 | 8.0 | 0.00 | 0.00 | 0.00 | 36 | 1018.5 |
| 20260510022403 | 69 | 48 | 8.0 | 10.0 | 0.00 | 0.00 | 0.00 | 36 | 1018.4 |
| 20260510021202 | 68 | 356 | 6.0 | 12.0 | 0.00 | 0.00 | 0.00 | 36 | 1018.7 |
| 20260510020004 | 68 | 3 | 3.0 | 9.0 | 0.00 | 0.00 | 0.00 | 36 | 1018.8 |
| 20260510014803 | 69 | 348 | 6.0 | 10.0 | 0.00 | 0.00 | 0.00 | 36 | 1018.9 |
| 20260510013603 | 68 | 32 | 7.0 | 9.0 | 0.00 | 0.00 | 0.00 | 34 | 1019.0 |
| 20260510012402 | 67 | 8 | 6.0 | 8.0 | 0.00 | 0.00 | 0.00 | 35 | 1019.2 |
| 20260510011202 | 66 | 25 | 6.0 | 9.0 | 0.00 | 0.00 | 0.00 | 35 | 1019.4 |
| 20260510010003 | 65 | 44 | 6.0 | 15.0 | 0.00 | 0.00 | 0.00 | 35 | 1019.5 |
| 20260510004804 | 65 | 354 | 3.0 | 7.0 | 0.00 | 0.00 | 0.00 | 34 | 1019.5 |
| 20260510003603 | 65 | 108 | 3.0 | 6.0 | 0.00 | 0.00 | 0.00 | 35 | 1019.4 |
| 20260510002404 | 64 | 10 | 3.0 | 7.0 | 0.00 | 0.00 | 0.00 | 36 | 1019.4 |
| 20260510001204 | 64 | 29 | 8.0 | 9.0 | 0.00 | 0.00 | 0.00 | 35 | 1019.7 |
| 20260510000004 | 64 | 55 | 3.0 | 7.0 | 0.00 | 0.00 | 0.00 | 38 | 1019.7 |
| 20260509234804 | 61 | 65 | 3.0 | 5.0 | 0.00 | 0.00 | 0.00 | 41 | 1019.7 |
| 20260509233604 | 62 | 7 | 3.0 | 5.0 | 0.00 | 0.00 | 0.00 | 40 | 1019.8 |
| 20260509232403 | 61 | 68 | 3.0 | 5.0 | 0.00 | 0.00 | 0.00 | 48 | 1020.1 |
| 20260509231203 | 62 | 89 | 1.0 | 2.0 | 0.00 | 0.00 | 0.00 | 52 | 1020.0 |
| 20260509230004 | 59 | 107 | 2.0 | 3.0 | 0.00 | 0.00 | 0.00 | 57 | 1019.9 |
| 20260509224804 | 57 | 60 | 5.0 | 6.0 | 0.00 | 0.00 | 0.00 | 60 | 1019.8 |
| 20260509223603 | 58 | 49 | 3.0 | 5.0 | 0.00 | 0.00 | 0.00 | 59 | 1019.8 |
| 20260509222403 | 56 | 34 | 0.0 | 1.0 | 0.00 | 0.00 | 0.00 | 65 | 1019.7 |
| 20260509220005 | 54 | 32 | 1.0 | 2.0 | 0.00 | 0.00 | 0.00 | 72 | 1019.7 |
| 20260509214804 | 51 | 31 | 2.0 | 3.0 | 0.00 | 0.00 | 0.00 | 76 | 1019.7 |
| 20260509213605 | 51 | 28 | 3.0 | 5.0 | 0.00 | 0.00 | 0.00 | 78 | 1019.7 |
| 20260509212403 | 50 | 34 | 3.0 | 3.0 | 0.00 | 0.00 | 0.00 | 77 | 1019.4 |
| 20260509211204 | 50 | 23 | 0.0 | 0.0 | 0.00 | 0.00 | 0.00 | 78 | 1019.3 |
| 20260509210005 | 50 | 23 | 1.0 | 1.0 | 0.00 | 0.00 | 0.00 | 80 | 1019.2 |
| 20260509204805 | 49 | 221 | 0.0 | 0.0 | 0.00 | 0.00 | 0.00 | 80 | 1019.2 |
| 20260509203604 | 47 | 235 | 2.0 | 3.0 | 0.00 | 0.00 | 0.00 | 78 | 1019.0 |
| 20260509202404 | 45 | 226 | 1.0 | 2.0 | 0.00 | 0.00 | 0.00 | 83 | 1019.1 |
| 20260509201204 | 45 | 268 | 1.0 | 2.0 | 0.00 | 0.00 | 0.00 | 83 | 1018.9 |
| 20260509200004 | 44 | 255 | 2.0 | 2.0 | 0.00 | 0.00 | 0.00 | 86 | 1018.7 |
| 20260509194803 | 44 | 127 | 0.0 | 0.0 | 0.00 | 0.00 | 0.00 | 86 | 1018.5 |
| 20260509193603 | 44 | 21 | 0.0 | 0.0 | 0.00 | 0.00 | 0.00 | 86 | 1018.4 |
| 20260509192404 | 45 | 19 | 1.0 | 1.0 | 0.00 | 0.00 | 0.00 | 84 | 1018.3 |